Weather History for Sheridan, WY

Change the Weather History Date:

Saturday, January 7, 2012

  Actual Average Record
Temperature  
Mean Temperature 28 °F 23 °F  
Max Temperature 38 °F 36 °F 67 °F (2003)
Min Temperature 18 °F 11 °F -31 °F (1913)
Degree Days  
Heating Degree Days 37 42  
Month to date heating degree days 218 294  
Since 1 July heating degree days 3055 3477  
Cooling Degree Days 0 0  
Month to date cooling degree days 0 0  
Year to date cooling degree days 0 0  
Moisture  
Dew Point 17 °F    
Average Humidity 61    
Maximum Humidity 81    
Minimum Humidity 40    
Precipitation  
Precipitation 0.00 in 0.02 in 0.25 in (1962)
Month to date precipitation 0.00 0.12  
Year to date precipitation 0.00 0.12  
Sea Level Pressure  
Sea Level Pressure 30.17 in    
Wind  
Wind Speed 5 mph (WNW)    
Max Wind Speed 16 mph    
Max Gust Speed 18 mph    
Visibility 10 miles    
Events      
T = Trace of Precipitation, MM = Missing Value Source: NWS Daily Summary

Daily Weather History Graph

Daily Weather History Graph

Search for Another Location

Airport:

Trip Planner

Search our weather history database for the weather conditions in past years. The results will help you decide how hot, cold, wet, or windy it might be!

Date:

Astronomy

Jan. 07, 2012 Rise Set
Actual Time 7:44 AM MST 4:43 PM MST
Civil Twilight 7:11 AM MST 5:16 PM MST
Nautical Twilight 6:35 AM MST 5:53 PM MST
Astronomical Twilight 5:59 AM MST 6:28 PM MST
Moon 3:29 PM MST (1/7) 6:19 AM MST (1/7)
Length of Visible Light 10h 04m
Length of Day
8h 58m
Waxing Gibbous, 98% of the Moon is Illuminated
Jan 7
Waxing Gibbous
Jan 9
Full
Jan 16
Last Quarter
Jan 23
New
Jan 30
First Quarter

Hourly Weather History & Observations

Time (MST) Temp. Windchill Dew Point Humidity Pressure Visibility Wind Dir Wind Speed Gust Speed Precip Events Conditions
12:53 AM 25.0 °F 20.7 °F 19.9 °F 81% 30.08 in 10.0 mi South 3.5 mph - N/A   Clear
1:53 AM 26.1 °F 21.9 °F 19.9 °F 78% 30.06 in 10.0 mi SW 3.5 mph - N/A   Overcast
2:53 AM 25.0 °F 17.1 °F 19.0 °F 78% 30.06 in 10.0 mi NNW 6.9 mph - N/A   Mostly Cloudy
3:53 AM 25.0 °F 19.3 °F 19.0 °F 78% 30.06 in 10.0 mi North 4.6 mph - N/A   Overcast
4:53 AM 24.1 °F - 18.0 °F 77% 30.10 in 10.0 mi Calm Calm - N/A   Clear
5:53 AM 21.0 °F - 16.0 °F 81% 30.14 in 10.0 mi Calm Calm - N/A   Clear
6:53 AM 21.0 °F 16.2 °F 16.0 °F 81% 30.15 in 10.0 mi South 3.5 mph - N/A   Mostly Cloudy
7:53 AM 23.0 °F - 18.0 °F 81% 30.16 in 10.0 mi Calm Calm - N/A   Overcast
8:53 AM 25.0 °F - 19.0 °F 78% 30.19 in 10.0 mi Calm Calm - N/A   Clear
9:53 AM 28.9 °F 25.2 °F 21.0 °F 72% 30.20 in 10.0 mi SSW 3.5 mph - N/A   Scattered Clouds
10:53 AM 35.1 °F 28.6 °F 18.0 °F 50% 30.19 in 10.0 mi NW 8.1 mph - N/A   Clear
11:53 AM 36.0 °F 28.0 °F 17.1 °F 46% 30.17 in 10.0 mi NNW 11.5 mph - N/A   Clear
12:53 PM 37.4 °F 28.9 °F 15.8 °F 41% 30.06 in 10.0 mi NW 13.8 mph - N/A   Clear
1:53 PM 37.9 °F 30.0 °F 16.0 °F 41% 30.16 in 10.0 mi NW 12.7 mph - N/A   Clear
2:53 PM 36.0 °F 28.0 °F 16.0 °F 44% 30.18 in 10.0 mi WNW 11.5 mph - N/A   Clear
3:53 PM 35.1 °F 27.9 °F 15.1 °F 44% 30.20 in 10.0 mi NW 9.2 mph - N/A   Clear
4:53 PM 28.9 °F 20.4 °F 16.0 °F 58% 30.25 in 10.0 mi NW 9.2 mph - N/A   Clear
5:53 PM 26.1 °F 18.4 °F 15.1 °F 63% 30.27 in 10.0 mi WNW 6.9 mph - N/A   Clear
6:53 PM 24.8 °F 20.5 °F 15.8 °F 69% 30.14 in 10.0 mi SE 3.5 mph - N/A   Clear
7:53 PM 21.9 °F - 15.1 °F 75% 30.30 in 10.0 mi Calm Calm - N/A   Clear
8:53 PM 21.0 °F - 15.1 °F 78% 30.27 in 10.0 mi Calm Calm - N/A   Clear
9:53 PM 19.9 °F - 14.0 °F 78% 30.26 in 10.0 mi Calm Calm - N/A   Clear
10:53 PM 21.0 °F - 14.0 °F 74% 30.26 in 10.0 mi Calm Calm - N/A   Clear
11:53 PM 21.0 °F - 14.0 °F 74% 30.25 in 10.0 mi Calm Calm - N/A   Clear